TRANSPORTER-15 CL (66748 NORAD) Tracking and Keplerian Element Data

This shows tracking and keplerian element data for the satellite.

Feedback or suggestion? Click here.




ElementValue
Catalog66748
NameTRANSPORTER-15 CL
Epoch Orbit325
Epoch Day354.18087764
Epoch Year2025
RAAN65.8354
Inclination97.4417
Eccentricity0.0001829
Argument of Perigee233.0535
Mean Anonmoly127.0532
Mean Motion15.18396095
Decay Rate0.0001202
L11 66748U 25276CL 25354.18087764 .00012020 00000+0 58725-3 0 9997
L22 66748 97.4417 65.8354 0001829 233.0535 127.0532 15.18396095 3254



Live tracking and technical data element details for TRANSPORTER-15 CL (NORAD 66748). TRANSPORTER-15 CL can be tracked NOW for your location showing map with azimuth and elevation plus other details from your city location.







IsCatalogInMostPopularTable: catalog: 66748, numindb: 17
Update: records affected: 1



GetName: 66748 TRANSPORTER-15 CL

Hit Count: updated at: Mon, 20 Apr 2026 09:37:43 GMT